カタログに戻る

UmKA 1

RS40S

運用中アマチュア無線SSO
NORAD 57172·PAYLOAD·🇷🇺 Russia

打ち上げ Jun 27, 2023 から Vostochny Cosmodrome

Loading…

次のパス (今後24時間)

TLE

最新Source: AMSAT

元期: Sep 14, 2026, 14:46 UTC

1 57172U 23091G   26257.61593191  .00004448  00000-0  19941-3 0  9991
2 57172  97.4954 315.9794 0013013 160.6053 199.5680 15.21672188177609

AllMySatでUmKA 1をリアルタイム追跡

Download on the App Store